(224930) = 2006 WH113 = 2007 DT52

Discovered at Mount Lemmon on 2007-02-19 by Mt. Lemmon Survey.

Orbit

Orbit type: Main Belt

Note: WebGL enabled browser required.

epoch2023-09-13.0
epoch JD2460200.5
perihelion date2021-05-31.82631
perihelion JD2459366.32631
argument of perihelion (°)173.46449
ascending node (°)328.18902
inclination (°)6.19378
eccentricity0.1478366
perihelion distance (AU)2.0060127
Tisserand w.r.t. Jupiter3.5
ΔV w.r.t. Earth (km/sec)9.0
semimajor axis (AU)2.3540236
mean anomaly (°)227.63766
mean daily motion (°/day)0.27289000
aphelion distance (AU)2.702
period (years)3.61
P-vector [x]-0.78462338
P-vector [y]0.56381749
P-vector [z]0.25782937
Q-vector [x]-0.61735870
Q-vector [y]-0.67239710
Q-vector [z]-0.40835081
absolute magnitude16.79
phase slope0.15
uncertainty0
referenceMPEC 2023-X152
observations used444
oppositions15
arc length (days)10241
first opposition used1995
last opposition used2023
residual rms (arc-secs)0.75
perturbers coarse indicatorM-v
perturbers precise indicator003Ek
first observation date used1995-11-22.0
last observation date used2023-12-06.0
computer nameMPCLINUX
JD of orbit computation2456819.574506
perihelion JD uncertainty (days)6.5001E-05
argument of perihelion uncertainty (°)4.0533E-05
ascending node uncertainty (°)3.2875E-05
inclination uncertainty (°)6.4976E-06
eccentricity uncertainty 6.8730E-08
perihelion distance uncertainty (AU)1.6613E-07
Minimum Orbit Intersection Distances (in AU)
for orbit epoch: 2460200.5, reference: E2023-XF2
Mercury1.65577
Venus1.28839
Earth1.01748
Mars0.3469
Jupiter2.31402
Saturn6.85569
Uranus16.4075
Neptune27.2801

Observations

449 total observations over interval: 1995 11 22.44593 – 2023 12 06.176627
These data are available for download (format description).

Date (UT) J2000 RA J2000 Dec Magn Location Ref
1995 11 22.44593 09 32 03.86 +19 41 52.3   691 – Steward Observatory, Kitt Peak-Spacewatch MPS 203195
1995 11 22.46892 09 32 05.40 +19 41 43.8 20.9 V 691 – Steward Observatory, Kitt Peak-Spacewatch MPS 203195
1995 11 22.49121 09 32 06.85 +19 41 35.6   691 – Steward Observatory, Kitt Peak-Spacewatch MPS 203195
2001 08 24.28922 21 59 49.97 -12 07 34.1 21.2 V 691 – Steward Observatory, Kitt Peak-Spacewatch MPS 203195
2001 08 24.29370 21 59 49.69 -12 07 34.7 21.2 V 691 – Steward Observatory, Kitt Peak-Spacewatch MPS 203195
2001 08 24.29783 21 59 49.44 -12 07 35.6 21.0 V 691 – Steward Observatory, Kitt Peak-Spacewatch MPS 203195
2001 09 12.23025 21 42 23.14 -12 57 53.9 20.0 R 695 – Kitt Peak MPS 203195
2001 09 12.27730 21 42 20.86 -12 57 59.3   695 – Kitt Peak MPS 203195
2003 01 05.23144 05 58 23.87 +32 28 33.9 19.4   704 – Lincoln Laboratory ETS, New Mexico MPS 212658
2003 01 05.24699 05 58 22.75 +32 28 30.5 19.3   704 – Lincoln Laboratory ETS, New Mexico MPS 212658
2003 01 05.26251 05 58 21.67 +32 28 26.9 19.6   704 – Lincoln Laboratory ETS, New Mexico MPS 212658
2003 01 05.27796 05 58 20.57 +32 28 23.0 20.3   704 – Lincoln Laboratory ETS, New Mexico MPS 212658
2003 01 05.29351 05 58 19.50 +32 28 20.4 19.5   704 – Lincoln Laboratory ETS, New Mexico MPS 212658
2005 09 01.43578 00 40 40.91 +09 51 27.3 20.7 V 691 – Steward Observatory, Kitt Peak-Spacewatch MPS 203195
2005 09 01.45308 00 40 40.25 +09 51 26.7 20.6 V 691 – Steward Observatory, Kitt Peak-Spacewatch MPS 203195
2005 09 01.47034 00 40 39.58 +09 51 26.5 20.6 V 691 – Steward Observatory, Kitt Peak-Spacewatch MPS 203195
2005 10 06.22719 00 09 36.68 +08 07 56.3 20.2 V 703 – Catalina Sky Survey MPS 203195
2005 10 06.23273 00 09 36.39 +08 07 53.6 20.9 V 703 – Catalina Sky Survey MPS 203195
2005 10 06.23827 00 09 36.10 +08 07 53.4 20.5 V 703 – Catalina Sky Survey MPS 203195
2005 10 06.24383 00 09 35.60 +08 07 49.7 20.4 V 703 – Catalina Sky Survey MPS 203195
2006 11 19.50831 10 45 29.11 +10 00 06.5 21.6 V 691 – Steward Observatory, Kitt Peak-Spacewatch MPS 190839
2006 11 19.52076 10 45 30.27 +09 59 58.0 21.1 V 691 – Steward Observatory, Kitt Peak-Spacewatch MPS 190839
2006 11 19.53320 10 45 31.40 +09 59 49.4 21.0 V 691 – Steward Observatory, Kitt Peak-Spacewatch MPS 190839
2006 11 22.48822 10 50 08.51 +09 26 30.0 21.0 V 691 – Steward Observatory, Kitt Peak-Spacewatch MPS 190839
2006 11 22.50067 10 50 09.64 +09 26 21.2 21.2 V 691 – Steward Observatory, Kitt Peak-Spacewatch MPS 190839
2006 11 22.51311 10 50 10.81 +09 26 12.8 21.4 V 691 – Steward Observatory, Kitt Peak-Spacewatch MPS 190839
2006 11 26.48092 10 56 11.94 +08 41 50.0   691 – Steward Observatory, Kitt Peak-Spacewatch MPS 203195
2006 11 26.49336 10 56 13.04 +08 41 41.6   691 – Steward Observatory, Kitt Peak-Spacewatch MPS 203195
2006 11 26.50580 10 56 14.11 +08 41 33.1   691 – Steward Observatory, Kitt Peak-Spacewatch MPS 203195
2006 12 27.45585 11 34 31.76 +03 22 38.6 20.3 V G96 – Mt. Lemmon Survey MPS 203195
2006 12 27.46045 11 34 32.01 +03 22 36.0 20.3 V G96 – Mt. Lemmon Survey MPS 203195
2006 12 27.46505 11 34 32.26 +03 22 33.5 20.3 V G96 – Mt. Lemmon Survey MPS 203195
2006 12 27.46961 11 34 32.52 +03 22 31.0 20.3 V G96 – Mt. Lemmon Survey MPS 203195
2007 01 15.48763 11 47 42.07 +00 49 20.5 19.9 V G96 – Mt. Lemmon Survey MPS 203195
2007 01 15.49368 11 47 42.25 +00 49 18.0 19.8 V G96 – Mt. Lemmon Survey MPS 203195
2007 01 15.49979 11 47 42.39 +00 49 15.0 19.9 V G96 – Mt. Lemmon Survey MPS 203195
2007 01 15.50590 11 47 42.54 +00 49 12.8 19.8 V G96 – Mt. Lemmon Survey MPS 203195
2007 02 19.36859 11 42 00.75 -01 25 31.0 19.1 V G96 – Mt. Lemmon Survey MPS 201629
2007 02 19.37479 11 42 00.43 -01 25 31.1 19.3 V G96 – Mt. Lemmon Survey MPS 201629
2007 02 19.38099 11 42 00.14 -01 25 31.5 19.1 V G96 – Mt. Lemmon Survey MPS 201629
2007 02 19.38722 11 41 59.85 -01 25 31.6 19.3 V G96 – Mt. Lemmon Survey MPS 201629
2007 02 23.36333 11 38 51.24 -01 26 45.6 19.6 V 691 – Steward Observatory, Kitt Peak-Spacewatch MPS 201629
2007 02 23.37849 11 38 50.43 -01 26 45.4 19.5 V 691 – Steward Observatory, Kitt Peak-Spacewatch MPS 201629
2007 02 23.39366 11 38 49.62 -01 26 45.5 19.6 V 691 – Steward Observatory, Kitt Peak-Spacewatch MPS 201629
2007 02 25.32195 11 37 10.07 -01 26 23.0 18.4   704 – Lincoln Laboratory ETS, New Mexico MPS 201629
2007 02 25.33355 11 37 09.40 -01 26 21.9 18.7   704 – Lincoln Laboratory ETS, New Mexico MPS 201629
2007 02 25.34507 11 37 08.80 -01 26 21.8 19.2   704 – Lincoln Laboratory ETS, New Mexico MPS 201629
2007 02 25.35659 11 37 08.12 -01 26 21.7 19.1   704 – Lincoln Laboratory ETS, New Mexico MPS 201629
2007 02 25.36812 11 37 07.51 -01 26 21.3 18.7   704 – Lincoln Laboratory ETS, New Mexico MPS 201629
2007 03 11.27888 11 23 28.24 -01 08 19.6 18.5 V 703 – Catalina Sky Survey MPS 203195
2007 03 11.28427 11 23 27.78 -01 08 18.6 18.5 V 703 – Catalina Sky Survey MPS 203195
2007 03 11.28963 11 23 27.56 -01 08 18.4 18.4 V 703 – Catalina Sky Survey MPS 203195
2007 03 11.29498 11 23 27.13 -01 08 17.6 18.6 V 703 – Catalina Sky Survey MPS 203195
2007 03 13.34236 11 21 20.52 -01 03 55.9 18.5 V G96 – Mt. Lemmon Survey MPS 203195
2007 03 13.35069 11 21 19.98 -01 03 54.7 18.6 V G96 – Mt. Lemmon Survey MPS 203195
2007 03 13.35914 11 21 19.44 -01 03 53.7 18.6 V G96 – Mt. Lemmon Survey MPS 203195
2007 03 13.36750 11 21 18.90 -01 03 52.6 18.7 V G96 – Mt. Lemmon Survey MPS 203195
2007 03 15.31806 11 19 19.44 -00 59 27.8 18.5   704 – Lincoln Laboratory ETS, New Mexico MPS 203195
2007 03 15.32879 11 19 18.80 -00 59 26.7 19.2   704 – Lincoln Laboratory ETS, New Mexico MPS 203195
2007 03 15.33947 11 19 18.04 -00 59 26.3 18.9   704 – Lincoln Laboratory ETS, New Mexico MPS 203195
2007 03 15.35020 11 19 17.28 -00 59 25.0 18.6   704 – Lincoln Laboratory ETS, New Mexico MPS 203195
2007 03 15.36088 11 19 16.72 -00 59 22.2 18.7   704 – Lincoln Laboratory ETS, New Mexico MPS 203195
2007 03 16.28357 11 18 20.85 -00 57 14.6 18.7   704 – Lincoln Laboratory ETS, New Mexico MPS 204678
2007 03 16.30541 11 18 19.42 -00 57 11.0 18.4   704 – Lincoln Laboratory ETS, New Mexico MPS 204678
2007 03 16.31623 11 18 18.72 -00 57 09.9 18.7   704 – Lincoln Laboratory ETS, New Mexico MPS 204678
2007 03 21.33415 11 13 23.81 -00 45 02.2 18.5   704 – Lincoln Laboratory ETS, New Mexico MPS 204678
2007 03 21.34481 11 13 23.19 -00 45 00.3 18.7   704 – Lincoln Laboratory ETS, New Mexico MPS 204678
2007 03 21.35540 11 13 22.57 -00 44 59.1 18.7   704 – Lincoln Laboratory ETS, New Mexico MPS 204678
2007 03 21.36613 11 13 21.90 -00 44 57.3 18.8   704 – Lincoln Laboratory ETS, New Mexico MPS 204678
2007 03 21.37671 11 13 21.29 -00 44 56.0 19.3   704 – Lincoln Laboratory ETS, New Mexico MPS 204678
2007 04 08.86166 10 59 59.09 -00 07 45.3 18.5 R 106 – Crni Vrh MPS 206250
2007 04 08.87069 10 59 58.85 -00 07 45.0 18.7 R 106 – Crni Vrh MPS 206250
2007 04 08.87972 10 59 58.55 -00 07 43.3 18.4 R 106 – Crni Vrh MPS 206250
2007 04 08.88871 10 59 58.26 -00 07 42.6 18.9 R 106 – Crni Vrh MPS 206250
2009 10 16.37370 03 47 51.74 +29 47 15.2 19.6   704 – Lincoln Laboratory ETS, New Mexico MPS 299437
2009 10 16.38696 03 47 51.21 +29 47 15.4 19.8   704 – Lincoln Laboratory ETS, New Mexico MPS 299437
2009 10 16.40051 03 47 50.70 +29 47 17.6 20.0   704 – Lincoln Laboratory ETS, New Mexico MPS 299437
2009 10 27.42787 03 40 17.25 +30 03 08.6 19.8 V G96 – Mt. Lemmon Survey MPS 300742
2009 10 27.43492 03 40 16.86 +30 03 08.9 19.5 V G96 – Mt. Lemmon Survey MPS 300742
2009 10 27.44219 03 40 16.46 +30 03 09.2 19.6 V G96 – Mt. Lemmon Survey MPS 300742
2009 10 27.44942 03 40 16.14 +30 03 09.0 19.5 V G96 – Mt. Lemmon Survey MPS 300742
2009 11 09.90009 03 26 37.27 +29 51 12.8 19.2 V J75 – OAM Observatory, La Sagra MPS 303160
2009 11 09.91188 03 26 36.48 +29 51 10.3 19.3 V J75 – OAM Observatory, La Sagra MPS 303160
2009 11 09.92365 03 26 35.64 +29 51 09.1 19.4 V J75 – OAM Observatory, La Sagra MPS 303160
2009 11 10.41501 03 26 01.57 +29 50 00.8 19.5 V 703 – Catalina Sky Survey MPS 303160
2009 11 10.42172 03 26 01.10 +29 50 00.9 19.4 V 703 – Catalina Sky Survey MPS 303160
2009 11 10.42838 03 26 00.67 +29 49 59.5 19.4 V 703 – Catalina Sky Survey MPS 303160
